Location: Newark
(33.6439°N, 114.9881°W)
Time: 10:47:00
(UTC+00:00)

A-11 Canister half - Pass Details

Date: 29 August 2019
Orbit: 1527 x 1682 km, 47.3° (Epoch: 15 September)

Event Time Altitude Azimuth Distance (km) Brightness Sun altitude
Rises 00:41:15 0° 305° (NW) 4,932 12.6 17.7°
Reaches altitude 10° 00:44:27 10° 303° (WNW) 3,946 12.3 17.0°
Maximum altitude 00:54:29 67° 223° (SW) 1,784 9.9 14.9°
Drops below altitude 10° 01:04:22 10° 143° (SE) 3,886 10.8 12.9°
Sets 01:07:29 0° 141° (SE) 4,853 11.2 12.2°
